| time (UTC) | temp C | wind direction | speed KPH | gust KPH | rain 1hr cm | rain 24hr cm | rain mn cm | humidity % | barometer mb |
| 20260906195514 | 29 | 92 | 4.8 | 12.9 | 0.00 | 0.05 | 0.05 | 64 | 1015.7 |
| 20260906195014 | 28 | 94 | 4.8 | 12.9 | 0.00 | 0.05 | 0.05 | 64 | 1015.8 |
| 20260906194527 | 28 | 98 | 6.4 | 12.9 | 0.00 | 0.05 | 0.05 | 65 | 1015.8 |
| 20260906194012 | 28 | 103 | 4.8 | 14.5 | 0.00 | 0.05 | 0.05 | 66 | 1015.7 |
| 20260906193514 | 28 | 113 | 9.7 | 16.1 | 0.00 | 0.05 | 0.05 | 63 | 1015.7 |
| 20260906193030 | 29 | 103 | 8.0 | 17.7 | 0.00 | 0.05 | 0.05 | 64 | 1015.7 |
| 20260906192512 | 28 | 111 | 8.0 | 17.7 | 0.00 | 0.05 | 0.05 | 62 | 1015.7 |
| 20260906192014 | 28 | 106 | 8.0 | 16.1 | 0.00 | 0.05 | 0.05 | 63 | 1015.7 |
| 20260906191530 | 28 | 90 | 8.0 | 16.1 | 0.00 | 0.05 | 0.05 | 67 | 1015.8 |
| 20260906191015 | 28 | 107 | 6.4 | 17.7 | 0.00 | 0.05 | 0.05 | 65 | 1015.8 |
| 20260906190516 | 28 | 107 | 9.7 | 17.7 | 0.00 | 0.05 | 0.05 | 65 | 1015.8 |
| 20260906190028 | 28 | 111 | 4.8 | 16.1 | 0.00 | 0.05 | 0.05 | 66 | 1015.8 |
| 20260906185503 | 28 | 63 | 8.0 | 20.9 | 0.00 | 0.05 | 0.05 | 66 | 1016.0 |
| 20260906185006 | 28 | 78 | 9.7 | 20.9 | 0.00 | 0.05 | 0.05 | 66 | 1016.0 |
| 20260906184513 | 28 | 67 | 9.7 | 16.1 | 0.00 | 0.05 | 0.05 | 66 | 1016.1 |
| 20260906184008 | 28 | 74 | 6.4 | 16.1 | 0.00 | 0.05 | 0.05 | 64 | 1016.2 |
| 20260906183511 | 28 | 102 | 11.3 | 16.1 | 0.00 | 0.05 | 0.05 | 64 | 1016.2 |
| 20260906183031 | 28 | 66 | 8.0 | 16.1 | 0.00 | 0.05 | 0.05 | 65 | 1016.3 |
| 20260906182515 | 28 | 93 | 8.0 | 14.5 | 0.00 | 0.05 | 0.05 | 66 | 1016.3 |
| 20260906182012 | 28 | 92 | 8.0 | 19.3 | 0.00 | 0.05 | 0.05 | 66 | 1016.2 |
| 20260906181536 | 27 | 82 | 8.0 | 20.9 | 0.00 | 0.05 | 0.05 | 66 | 1016.2 |
| 20260906181014 | 27 | 88 | 11.3 | 20.9 | 0.00 | 0.05 | 0.05 | 67 | 1016.2 |
| 20260906180516 | 27 | 98 | 8.0 | 19.3 | 0.00 | 0.05 | 0.05 | 66 | 1016.3 |
| 20260906180004 | 27 | 103 | 14.5 | 19.3 | 0.00 | 0.05 | 0.05 | 67 | 1016.2 |
| 20260906175505 | 27 | 66 | 11.3 | 17.7 | 0.00 | 0.05 | 0.05 | 69 | 1016.2 |
| 20260906175003 | 27 | 88 | 9.7 | 17.7 | 0.00 | 0.05 | 0.05 | 69 | 1016.2 |
| 20260906174510 | 27 | 119 | 11.3 | 17.7 | 0.00 | 0.05 | 0.05 | 68 | 1016.2 |
| 20260906174007 | 26 | 101 | 9.7 | 17.7 | 0.00 | 0.05 | 0.05 | 69 | 1016.2 |
| 20260906173511 | 26 | 96 | 8.0 | 17.7 | 0.00 | 0.05 | 0.05 | 72 | 1016.3 |
| 20260906173021 | 26 | 85 | 4.8 | 12.9 | 0.00 | 0.05 | 0.05 | 72 | 1016.3 |
| 20260906172509 | 26 | 88 | 3.2 | 11.3 | 0.00 | 0.05 | 0.05 | 75 | 1016.4 |
| 20260906172010 | 25 | 78 | 3.2 | 11.3 | 0.00 | 0.05 | 0.05 | 75 | 1016.3 |
| 20260906171524 | 25 | 90 | 3.2 | 11.3 | 0.00 | 0.05 | 0.05 | 76 | 1016.2 |
| 20260906171011 | 25 | 77 | 1.6 | 11.3 | 0.00 | 0.05 | 0.05 | 77 | 1016.1 |
| 20260906170518 | 24 | 82 | 1.6 | 16.1 | 0.00 | 0.05 | 0.05 | 79 | 1016.0 |
| 20260906170027 | 24 | 74 | 6.4 | 16.1 | 0.00 | 0.05 | 0.05 | 79 | 1015.8 |
| 20260906165516 | 23 | 85 | 4.8 | 16.1 | 0.00 | 0.05 | 0.05 | 80 | 1015.9 |
| 20260906165003 | 23 | 92 | 3.2 | 16.1 | 0.00 | 0.05 | 0.05 | 81 | 1015.8 |
| 20260906164523 | 23 | 80 | 8.0 | 16.1 | 0.00 | 0.05 | 0.05 | 81 | 1015.7 |
| 20260906164003 | 23 | 107 | 6.4 | 19.3 | 0.00 | 0.05 | 0.05 | 82 | 1015.8 |
| 20260906163510 | 23 | 109 | 8.0 | 19.3 | 0.00 | 0.05 | 0.05 | 82 | 1015.6 |
| 20260906163021 | 23 | 126 | 11.3 | 17.7 | 0.00 | 0.05 | 0.05 | 83 | 1015.7 |
| 20260906162509 | 22 | 125 | 6.4 | 20.9 | 0.03 | 0.05 | 0.05 | 84 | 1015.7 |
| 20260906162008 | 22 | 122 | 11.3 | 20.9 | 0.03 | 0.05 | 0.05 | 84 | 1015.8 |
| 20260906161521 | 22 | 124 | 9.7 | 14.5 | 0.03 | 0.05 | 0.05 | 84 | 1016.0 |
| 20260906161011 | 22 | 141 | 4.8 | 16.1 | 0.03 | 0.05 | 0.05 | 85 | 1016.3 |
| 20260906160512 | 22 | 141 | 4.8 | 19.3 | 0.03 | 0.05 | 0.05 | 85 | 1016.2 |
| 20260906160038 | 22 | 149 | 9.7 | 19.3 | 0.03 | 0.05 | 0.05 | 86 | 1016.0 |
| 20260906155517 | 21 | 133 | 8.0 | 16.1 | 0.03 | 0.05 | 0.05 | 87 | 1015.8 |
| 20260906155015 | 21 | 115 | 9.7 | 16.1 | 0.05 | 0.05 | 0.05 | 87 | 1015.9 |
| 20260906154534 | 21 | 110 | 8.0 | 16.1 | 0.05 | 0.05 | 0.05 | 87 | 1015.7 |
| 20260906154016 | 21 | 44 | 9.7 | 16.1 | 0.05 | 0.05 | 0.05 | 87 | 1015.6 |
| 20260906153506 | 21 | 101 | 11.3 | 16.1 | 0.05 | 0.05 | 0.05 | 86 | 1015.8 |
| 20260906153013 | 21 | 102 | 6.4 | 17.7 | 0.05 | 0.05 | 0.05 | 86 | 1015.6 |
| 20260906152503 | 21 | 106 | 11.3 | 17.7 | 0.03 | 0.03 | 0.03 | 86 | 1015.6 |
| 20260906152011 | 21 | 95 | 3.2 | 6.4 | 0.03 | 0.03 | 0.03 | 86 | 1016.2 |
| 20260906151516 | 21 | 114 | 1.6 | 4.8 | 0.03 | 0.03 | 0.03 | 85 | 1016.2 |
| 20260906151008 | 21 | 105 | 0.0 | 8.0 | 0.03 | 0.03 | 0.03 | 85 | 1016.4 |
| 20260906150513 | 21 | 112 | 1.6 | 19.3 | 0.03 | 0.03 | 0.03 | 85 | 1016.0 |
| 20260906150043 | 21 | 131 | 6.4 | 19.3 | 0.03 | 0.03 | 0.03 | 84 | 1015.9 |
| 20260906145512 | 21 | 101 | 6.4 | 19.3 | 0.03 | 0.03 | 0.03 | 84 | 1015.8 |
| 20260906145014 | 21 | 167 | 4.8 | 14.5 | 0.00 | 0.00 | 0.00 | 83 | 1016.1 |
| 20260906144536 | 22 | 171 | 3.2 | 14.5 | 0.00 | 0.00 | 0.00 | 82 | 1016.6 |
| 20260906144018 | 22 | 173 | 4.8 | 14.5 | 0.00 | 0.00 | 0.00 | 82 | 1016.9 |
| 20260906143516 | 22 | 175 | 4.8 | 12.9 | 0.00 | 0.00 | 0.00 | 81 | 1016.9 |
| 20260906143037 | 22 | 221 | 3.2 | 20.9 | 0.00 | 0.00 | 0.00 | 81 | 1016.9 |
| 20260906142504 | 22 | 213 | 9.7 | 20.9 | 0.00 | 0.00 | 0.00 | 81 | 1016.9 |
| 20260906142004 | 22 | 222 | 6.4 | 19.3 | 0.00 | 0.00 | 0.00 | 82 | 1017.1 |
| 20260906141518 | 22 | 162 | 3.2 | 11.3 | 0.00 | 0.00 | 0.00 | 83 | 1017.2 |
| 20260906141008 | 22 | 225 | 3.2 | 11.3 | 0.00 | 0.00 | 0.00 | 83 | 1017.3 |
| 20260906140514 | 22 | 229 | 1.6 | 6.4 | 0.00 | 0.00 | 0.00 | 84 | 1017.4 |
| 20260906140023 | 22 | 227 | 1.6 | 6.4 | 0.00 | 0.00 | 0.00 | 84 | 1017.4 |
| 20260906135512 | 22 | 226 | 0.0 | 9.7 | 0.00 | 0.00 | 0.00 | 84 | 1017.4 |
| 20260906135012 | 22 | 281 | 1.6 | 9.7 | 0.00 | 0.00 | 0.00 | 84 | 1017.4 |
| 20260906134527 | 22 | 270 | 1.6 | 8.0 | 0.00 | 0.00 | 0.00 | 84 | 1017.3 |
| 20260906134015 | 22 | 308 | 3.2 | 11.3 | 0.00 | 0.00 | 0.00 | 84 | 1017.2 |
| 20260906133517 | 22 | 308 | 3.2 | 12.9 | 0.00 | 0.00 | 0.00 | 84 | 1017.2 |
| 20260906133031 | 22 | 275 | 4.8 | 14.5 | 0.00 | 0.00 | 0.00 | 84 | 1017.2 |
| 20260906132516 | 22 | 254 | 4.8 | 14.5 | 0.00 | 0.00 | 0.00 | 84 | 1017.3 |
| 20260906132015 | 22 | 263 | 6.4 | 14.5 | 0.00 | 0.00 | 0.00 | 83 | 1017.2 |
| 20260906131524 | 22 | 267 | 3.2 | 12.9 | 0.00 | 0.00 | 0.00 | 83 | 1017.2 |
| 20260906131007 | 22 | 276 | 4.8 | 11.3 | 0.00 | 0.00 | 0.00 | 83 | 1017.2 |
| 20260906130507 | 22 | 277 | 4.8 | 11.3 | 0.00 | 0.00 | 0.00 | 82 | 1017.2 |
| 20260906130033 | 22 | 284 | 3.2 | 11.3 | 0.00 | 0.00 | 0.00 | 82 | 1017.4 |
| 20260906125514 | 22 | 286 | 3.2 | 14.5 | 0.00 | 0.00 | 0.00 | 81 | 1017.4 |
| 20260906125010 | 22 | 281 | 6.4 | 14.5 | 0.00 | 0.00 | 0.00 | 81 | 1017.4 |
| 20260906124527 | 22 | 272 | 8.0 | 14.5 | 0.00 | 0.00 | 0.00 | 80 | 1017.4 |
| 20260906124013 | 22 | 271 | 3.2 | 16.1 | 0.00 | 0.00 | 0.00 | 80 | 1017.3 |
| 20260906123515 | 22 | 270 | 6.4 | 17.7 | 0.00 | 0.00 | 0.00 | 79 | 1017.3 |
| 20260906123029 | 22 | 291 | 8.0 | 20.9 | 0.00 | 0.00 | 0.00 | 79 | 1017.4 |
| 20260906122516 | 22 | 278 | 12.9 | 22.5 | 0.00 | 0.00 | 0.00 | 78 | 1017.5 |
| 20260906122016 | 23 | 283 | 12.9 | 22.5 | 0.00 | 0.00 | 0.00 | 78 | 1017.4 |
| 20260906121534 | 23 | 285 | 9.7 | 22.5 | 0.00 | 0.00 | 0.00 | 78 | 1017.5 |
| 20260906121018 | 23 | 274 | 12.9 | 27.4 | 0.00 | 0.00 | 0.00 | 78 | 1017.5 |
| 20260906120518 | 23 | 279 | 14.5 | 27.4 | 0.00 | 0.00 | 0.00 | 78 | 1017.5 |
| 20260906120019 | 23 | 269 | 9.7 | 22.5 | 0.00 | 0.00 | 0.00 | 78 | 1017.5 |
| 20260906115510 | 23 | 273 | 11.3 | 22.5 | 0.00 | 0.00 | 0.00 | 79 | 1017.3 |
| 20260906115010 | 23 | 255 | 11.3 | 19.3 | 0.00 | 0.00 | 0.00 | 79 | 1017.3 |
| 20260906114532 | 24 | 283 | 9.7 | 19.3 | 0.00 | 0.00 | 0.00 | 79 | 1017.0 |
| 20260906114013 | 24 | 262 | 8.0 | 17.7 | 0.00 | 0.00 | 0.00 | 78 | 1016.8 |
| 20260906113512 | 24 | 279 | 8.0 | 17.7 | 0.00 | 0.00 | 0.00 | 78 | 1016.6 |
| 20260906113026 | 24 | 290 | 8.0 | 17.7 | 0.00 | 0.00 | 0.00 | 78 | 1016.5 |
| 20260906112514 | 24 | 271 | 6.4 | 14.5 | 0.00 | 0.00 | 0.00 | 79 | 1016.4 |
| 20260906112017 | 24 | 263 | 4.8 | 12.9 | 0.00 | 0.00 | 0.00 | 79 | 1016.3 |
| 20260906111533 | 24 | 266 | 3.2 | 12.9 | 0.00 | 0.00 | 0.00 | 79 | 1016.3 |
| 20260906111016 | 23 | 273 | 4.8 | 12.9 | 0.00 | 0.00 | 0.00 | 80 | 1016.3 |
| 20260906110518 | 23 | 253 | 3.2 | 17.7 | 0.00 | 0.00 | 0.00 | 82 | 1016.2 |
| 20260906110040 | 23 | 234 | 6.4 | 17.7 | 0.00 | 0.00 | 0.00 | 84 | 1016.0 |
| 20260906105516 | 22 | 244 | 3.2 | 25.7 | 0.00 | 0.00 | 0.00 | 86 | 1016.0 |
| 20260906105009 | 22 | 277 | 8.0 | 25.7 | 0.00 | 0.00 | 0.00 | 87 | 1016.2 |
| 20260906104523 | 22 | 136 | 1.6 | 4.8 | 0.00 | 0.00 | 0.00 | 87 | 1015.1 |
| 20260906104011 | 22 | 136 | 1.6 | 6.4 | 0.00 | 0.00 | 0.00 | 87 | 1015.0 |
| 20260906103510 | 22 | 134 | 3.2 | 6.4 | 0.00 | 0.00 | 0.00 | 87 | 1014.8 |
| 20260906103027 | 22 | 134 | 1.6 | 6.4 | 0.00 | 0.00 | 0.00 | 87 | 1014.8 |
| 20260906102513 | 22 | 134 | 3.2 | 6.4 | 0.00 | 0.00 | 0.00 | 87 | 1014.7 |
| 20260906102016 | 22 | 134 | 1.6 | 6.4 | 0.00 | 0.00 | 0.00 | 87 | 1014.6 |
| 20260906101531 | 22 | 134 | 1.6 | 6.4 | 0.00 | 0.00 | 0.00 | 87 | 1014.7 |
| 20260906101016 | 22 | 134 | 1.6 | 6.4 | 0.00 | 0.00 | 0.00 | 87 | 1014.7 |
| 20260906100518 | 22 | 134 | 3.2 | 6.4 | 0.00 | 0.00 | 0.00 | 87 | 1014.8 |
| 20260906100031 | 22 | 134 | 3.2 | 6.4 | 0.00 | 0.00 | 0.00 | 87 | 1014.9 |
| 20260906095506 | 22 | 136 | 3.2 | 6.4 | 0.00 | 0.00 | 0.00 | 86 | 1014.9 |
| 20260906095008 | 22 | 137 | 1.6 | 6.4 | 0.00 | 0.00 | 0.00 | 86 | 1014.9 |
| 20260906094527 | 22 | 136 | 1.6 | 6.4 | 0.00 | 0.00 | 0.00 | 86 | 1014.9 |
| 20260906094007 | 22 | 133 | 1.6 | 8.0 | 0.00 | 0.00 | 0.00 | 86 | 1014.7 |
| 20260906093507 | 22 | 130 | 3.2 | 8.0 | 0.00 | 0.00 | 0.00 | 87 | 1014.8 |
| 20260906093023 | 22 | 128 | 1.6 | 4.8 | 0.00 | 0.00 | 0.00 | 87 | 1014.8 |
| 20260906092512 | 22 | 127 | 1.6 | 4.8 | 0.00 | 0.00 | 0.00 | 87 | 1014.6 |
| 20260906092016 | 22 | 126 | 1.6 | 4.8 | 0.00 | 0.00 | 0.00 | 87 | 1014.6 |
| 20260906091530 | 22 | 128 | 1.6 | 4.8 | 0.00 | 0.00 | 0.00 | 87 | 1014.6 |
| 20260906091015 | 22 | 128 | 1.6 | 4.8 | 0.00 | 0.00 | 0.00 | 87 | 1014.5 |
| 20260906090518 | 22 | 128 | 1.6 | 6.4 | 0.00 | 0.00 | 0.00 | 87 | 1014.5 |
| 20260906090033 | 22 | 128 | 3.2 | 6.4 | 0.00 | 0.00 | 0.00 | 87 | 1014.4 |
| 20260906085505 | 22 | 128 | 3.2 | 6.4 | 0.00 | 0.00 | 0.00 | 87 | 1014.5 |
| 20260906085004 | 22 | 128 | 1.6 | 4.8 | 0.00 | 0.00 | 0.00 | 87 | 1014.5 |
| 20260906084514 | 22 | 128 | 1.6 | 4.8 | 0.00 | 0.00 | 0.00 | 87 | 1014.5 |
| 20260906084013 | 22 | 128 | 1.6 | 8.0 | 0.00 | 0.00 | 0.00 | 86 | 1014.6 |
| 20260906083507 | 22 | 130 | 1.6 | 8.0 | 0.00 | 0.00 | 0.00 | 86 | 1014.6 |
| 20260906083018 | 22 | 142 | 3.2 | 8.0 | 0.00 | 0.00 | 0.00 | 86 | 1014.7 |
| 20260906082508 | 22 | 142 | 3.2 | 6.4 | 0.00 | 0.00 | 0.00 | 86 | 1014.8 |
| 20260906082011 | 22 | 142 | 1.6 | 4.8 | 0.00 | 0.00 | 0.00 | 86 | 1014.8 |
| 20260906081542 | 22 | 142 | 0.0 | 8.0 | 0.00 | 0.00 | 0.00 | 86 | 1014.8 |
| 20260906081013 | 22 | 142 | 1.6 | 8.0 | 0.00 | 0.00 | 0.00 | 86 | 1014.7 |
| 20260906080517 | 22 | 142 | 3.2 | 6.4 | 0.00 | 0.00 | 0.00 | 86 | 1014.7 |
| 20260906080030 | 22 | 142 | 1.6 | 11.3 | 0.00 | 0.00 | 0.00 | 86 | 1014.8 |
| 20260906075516 | 22 | 142 | 3.2 | 11.3 | 0.00 | 0.00 | 0.00 | 86 | 1014.7 |
| 20260906075020 | 22 | 142 | 3.2 | 6.4 | 0.00 | 0.00 | 0.00 | 85 | 1014.7 |
| 20260906074512 | 22 | 142 | 3.2 | 11.3 | 0.00 | 0.00 | 0.00 | 85 | 1014.8 |
| 20260906074003 | 22 | 142 | 3.2 | 11.3 | 0.00 | 0.00 | 0.00 | 85 | 1014.6 |
| 20260906073507 | 22 | 142 | 4.8 | 11.3 | 0.00 | 0.00 | 0.00 | 85 | 1014.7 |
| 20260906073017 | 22 | 142 | 4.8 | 11.3 | 0.00 | 0.00 | 0.00 | 86 | 1014.7 |
| 20260906072507 | 22 | 142 | 3.2 | 8.0 | 0.00 | 0.00 | 0.00 | 86 | 1014.7 |
| 20260906072007 | 22 | 142 | 1.6 | 8.0 | 0.00 | 0.00 | 0.00 | 85 | 1014.6 |
| 20260906071524 | 22 | 141 | 3.2 | 8.0 | 0.00 | 0.00 | 0.00 | 86 | 1014.6 |
| 20260906071013 | 23 | 134 | 1.6 | 6.4 | 0.00 | 0.00 | 0.00 | 85 | 1014.6 |
| 20260906070515 | 23 | 134 | 1.6 | 6.4 | 0.00 | 0.00 | 0.00 | 85 | 1014.5 |
| 20260906070028 | 23 | 133 | 1.6 | 8.0 | 0.00 | 0.00 | 0.00 | 85 | 1014.5 |
| 20260906065516 | 23 | 132 | 3.2 | 8.0 | 0.00 | 0.00 | 0.00 | 85 | 1014.5 |
| 20260906065014 | 23 | 132 | 3.2 | 8.0 | 0.00 | 0.00 | 0.00 | 85 | 1014.6 |
| 20260906064531 | 23 | 131 | 3.2 | 6.4 | 0.00 | 0.00 | 0.00 | 85 | 1014.5 |
| 20260906064014 | 23 | 129 | 1.6 | 6.4 | 0.00 | 0.00 | 0.00 | 85 | 1014.5 |
| 20260906063517 | 23 | 128 | 1.6 | 8.0 | 0.00 | 0.00 | 0.00 | 85 | 1014.5 |
| 20260906063015 | 23 | 128 | 3.2 | 8.0 | 0.00 | 0.00 | 0.00 | 85 | 1014.5 |
| 20260906062510 | 23 | 128 | 1.6 | 6.4 | 0.00 | 0.00 | 0.00 | 86 | 1014.5 |
| 20260906062009 | 23 | 127 | 1.6 | 8.0 | 0.00 | 0.00 | 0.00 | 85 | 1014.5 |
| 20260906061529 | 23 | 126 | 1.6 | 11.3 | 0.00 | 0.00 | 0.00 | 86 | 1014.4 |
| 20260906061007 | 23 | 125 | 6.4 | 11.3 | 0.00 | 0.00 | 0.00 | 86 | 1014.4 |
| 20260906060511 | 23 | 121 | 1.6 | 6.4 | 0.00 | 0.00 | 0.00 | 85 | 1014.5 |
| 20260906060028 | 23 | 121 | 1.6 | 6.4 | 0.00 | 0.00 | 0.00 | 85 | 1014.6 |
| 20260906055514 | 23 | 121 | 1.6 | 6.4 | 0.00 | 0.00 | 0.00 | 85 | 1014.7 |
| 20260906055015 | 23 | 121 | 1.6 | 9.7 | 0.00 | 0.00 | 0.00 | 85 | 1014.8 |
| 20260906054529 | 23 | 120 | 1.6 | 8.0 | 0.00 | 0.00 | 0.00 | 84 | 1014.8 |
| 20260906054017 | 23 | 121 | 1.6 | 6.4 | 0.00 | 0.00 | 0.00 | 84 | 1014.9 |
| 20260906053515 | 23 | 121 | 1.6 | 4.8 | 0.00 | 0.00 | 0.00 | 84 | 1014.9 |
| 20260906053032 | 24 | 119 | 1.6 | 4.8 | 0.00 | 0.00 | 0.00 | 84 | 1014.8 |
| 20260906052518 | 24 | 119 | 1.6 | 4.8 | 0.00 | 0.00 | 0.00 | 84 | 1014.7 |
| 20260906052006 | 24 | 117 | 1.6 | 4.8 | 0.00 | 0.00 | 0.00 | 84 | 1014.9 |
| 20260906051516 | 24 | 117 | 0.0 | 4.8 | 0.00 | 0.00 | 0.00 | 85 | 1014.9 |
| 20260906051007 | 24 | 117 | 1.6 | 4.8 | 0.00 | 0.00 | 0.00 | 85 | 1014.9 |
| 20260906050507 | 24 | 117 | 1.6 | 4.8 | 0.00 | 0.00 | 0.00 | 85 | 1014.9 |
| 20260906050023 | 23 | 117 | 0.0 | 4.8 | 0.00 | 0.00 | 0.00 | 85 | 1014.9 |
| 20260906045515 | 23 | 117 | 1.6 | 4.8 | 0.00 | 0.00 | 0.00 | 86 | 1014.9 |
| 20260906045011 | 23 | 117 | 1.6 | 4.8 | 0.00 | 0.00 | 0.00 | 86 | 1014.9 |
| 20260906044534 | 23 | 116 | 1.6 | 4.8 | 0.00 | 0.00 | 0.00 | 86 | 1014.9 |
| 20260906044012 | 23 | 117 | 1.6 | 9.7 | 0.00 | 0.00 | 0.00 | 85 | 1014.9 |
| 20260906043520 | 24 | 117 | 1.6 | 9.7 | 0.00 | 0.00 | 0.00 | 85 | 1014.9 |
| 20260906043042 | 24 | 123 | 3.2 | 8.0 | 0.00 | 0.00 | 0.00 | 85 | 1014.9 |
| 20260906042517 | 24 | 126 | 3.2 | 6.4 | 0.00 | 0.00 | 0.00 | 85 | 1014.9 |
| 20260906042018 | 24 | 127 | 3.2 | 6.4 | 0.00 | 0.00 | 0.00 | 84 | 1014.9 |
| 20260906041538 | 24 | 127 | 1.6 | 8.0 | 0.00 | 0.00 | 0.00 | 84 | 1014.9 |
| 20260906041019 | 25 | 127 | 3.2 | 8.0 | 0.00 | 0.00 | 0.00 | 83 | 1014.9 |
| 20260906040506 | 25 | 128 | 1.6 | 4.8 | 0.00 | 0.00 | 0.00 | 83 | 1014.9 |
| 20260906040029 | 25 | 128 | 0.0 | 6.4 | 0.00 | 0.00 | 0.00 | 82 | 1014.8 |
| 20260906035508 | 25 | 128 | 1.6 | 6.4 | 0.00 | 0.00 | 0.00 | 82 | 1014.7 |
| 20260906035010 | 25 | 128 | 1.6 | 4.8 | 0.00 | 0.00 | 0.00 | 82 | 1014.7 |
| 20260906034530 | 25 | 128 | 0.0 | 6.4 | 0.00 | 0.00 | 0.00 | 82 | 1014.6 |
| 20260906034013 | 25 | 128 | 1.6 | 6.4 | 0.00 | 0.00 | 0.00 | 82 | 1014.6 |
| 20260906033516 | 25 | 128 | 3.2 | 6.4 | 0.00 | 0.00 | 0.00 | 82 | 1014.6 |
| 20260906033030 | 25 | 128 | 3.2 | 8.0 | 0.00 | 0.00 | 0.00 | 82 | 1014.6 |
| 20260906032518 | 25 | 128 | 3.2 | 8.0 | 0.00 | 0.00 | 0.00 | 82 | 1014.6 |
| 20260906032017 | 25 | 128 | 3.2 | 6.4 | 0.00 | 0.00 | 0.00 | 82 | 1014.5 |
| 20260906031546 | 25 | 128 | 1.6 | 9.7 | 0.00 | 0.00 | 0.00 | 81 | 1014.5 |
| 20260906031017 | 26 | 128 | 4.8 | 9.7 | 0.00 | 0.00 | 0.00 | 81 | 1014.4 |
| 20260906030518 | 26 | 123 | 3.2 | 9.7 | 0.00 | 0.00 | 0.00 | 81 | 1014.3 |
| 20260906030034 | 26 | 123 | 3.2 | 9.7 | 0.00 | 0.00 | 0.00 | 81 | 1014.2 |
| 20260906025510 | 26 | 123 | 3.2 | 12.9 | 0.00 | 0.00 | 0.00 | 81 | 1014.1 |
| 20260906025009 | 26 | 121 | 3.2 | 12.9 | 0.00 | 0.00 | 0.00 | 82 | 1014.1 |
| 20260906024525 | 25 | 118 | 6.4 | 12.9 | 0.00 | 0.00 | 0.00 | 82 | 1014.0 |
| 20260906024012 | 25 | 115 | 3.2 | 9.7 | 0.00 | 0.00 | 0.00 | 82 | 1013.9 |
| 20260906023514 | 25 | 115 | 3.2 | 9.7 | 0.00 | 0.00 | 0.00 | 82 | 1014.0 |
| 20260906023032 | 25 | 115 | 4.8 | 9.7 | 0.00 | 0.00 | 0.00 | 82 | 1013.8 |
| 20260906022515 | 25 | 115 | 3.2 | 6.4 | 0.00 | 0.00 | 0.00 | 82 | 1013.8 |
| 20260906022016 | 26 | 115 | 3.2 | 6.4 | 0.00 | 0.00 | 0.00 | 82 | 1013.8 |
| 20260906021532 | 26 | 115 | 3.2 | 9.7 | 0.00 | 0.00 | 0.00 | 82 | 1013.7 |
| 20260906021015 | 26 | 115 | 3.2 | 9.7 | 0.00 | 0.00 | 0.00 | 81 | 1013.5 |
| 20260906020515 | 26 | 115 | 4.8 | 9.7 | 0.00 | 0.00 | 0.00 | 81 | 1013.5 |
| 20260906020048 | 26 | 116 | 4.8 | 9.7 | 0.00 | 0.00 | 0.00 | 81 | 1013.4 |
| 20260906015524 | 26 | 117 | 3.2 | 6.4 | 0.00 | 0.00 | 0.00 | 80 | 1013.3 |
| 20260906015018 | 26 | 119 | 3.2 | 9.7 | 0.00 | 0.00 | 0.00 | 79 | 1013.3 |
| 20260906014524 | 27 | 121 | 4.8 | 9.7 | 0.00 | 0.00 | 0.00 | 79 | 1013.2 |
| 20260906014012 | 27 | 127 | 4.8 | 6.4 | 0.00 | 0.00 | 0.00 | 78 | 1013.1 |
| 20260906013511 | 27 | 128 | 1.6 | 6.4 | 0.00 | 0.00 | 0.00 | 78 | 1013.2 |
| 20260906013028 | 27 | 129 | 0.0 | 6.4 | 0.00 | 0.00 | 0.00 | 78 | 1013.1 |
| 20260906012514 | 27 | 133 | 3.2 | 6.4 | 0.00 | 0.00 | 0.00 | 78 | 1013.0 |
| 20260906012014 | 27 | 135 | 1.6 | 4.8 | 0.00 | 0.00 | 0.00 | 78 | 1013.0 |
| 20260906011533 | 27 | 135 | 1.6 | 6.4 | 0.00 | 0.00 | 0.00 | 77 | 1013.0 |
| 20260906011020 | 28 | 135 | 3.2 | 11.3 | 0.00 | 0.00 | 0.00 | 76 | 1013.0 |
| 20260906010518 | 28 | 135 | 4.8 | 11.3 | 0.00 | 0.00 | 0.00 | 76 | 1012.9 |
| 20260906010034 | 28 | 138 | 1.6 | 8.0 | 0.00 | 0.00 | 0.00 | 76 | 1012.9 |
| 20260906005503 | 28 | 140 | 1.6 | 8.0 | 0.00 | 0.00 | 0.00 | 77 | 1012.9 |
| 20260906005008 | 28 | 144 | 3.2 | 8.0 | 0.00 | 0.00 | 0.00 | 77 | 1012.9 |
| 20260906004519 | 28 | 153 | 3.2 | 6.4 | 0.00 | 0.00 | 0.00 | 76 | 1012.9 |
| 20260906004008 | 28 | 123 | 3.2 | 6.4 | 0.00 | 0.00 | 0.00 | 75 | 1012.9 |
| 20260906003508 | 29 | 123 | 3.2 | 9.7 | 0.00 | 0.00 | 0.00 | 74 | 1013.0 |
| 20260906003027 | 30 | 123 | 3.2 | 9.7 | 0.00 | 0.00 | 0.00 | 73 | 1013.0 |
| 20260906002511 | 30 | 121 | 3.2 | 9.7 | 0.00 | 0.00 | 0.00 | 73 | 1013.0 |
| 20260906002013 | 30 | 121 | 3.2 | 9.7 | 0.00 | 0.00 | 0.00 | 72 | 1012.9 |
| 20260906001533 | 30 | 109 | 4.8 | 9.7 | 0.00 | 0.00 | 0.00 | 71 | 1012.9 |
| 20260906001013 | 30 | 111 | 4.8 | 11.3 | 0.00 | 0.00 | 0.00 | 70 | 1012.9 |
| 20260906000518 | 30 | 113 | 3.2 | 11.3 | 0.00 | 0.00 | 0.00 | 70 | 1012.8 |
| 20260906000032 | 31 | 111 | 6.4 | 11.3 | 0.00 | 0.00 | 0.00 | 69 | 1012.8 |
| 20260905235516 | 31 | 113 | 4.8 | 11.3 | 0.00 | 0.00 | 0.00 | 69 | 1012.8 |
| 20260905235003 | 31 | 115 | 4.8 | 12.9 | 0.00 | 0.00 | 0.00 | 68 | 1012.9 |
| 20260905234516 | 31 | 117 | 4.8 | 12.9 | 0.00 | 0.00 | 0.00 | 67 | 1012.8 |
| 20260905234008 | 31 | 118 | 6.4 | 12.9 | 0.00 | 0.00 | 0.00 | 67 | 1012.8 |
| 20260905233510 | 31 | 109 | 6.4 | 14.5 | 0.00 | 0.00 | 0.00 | 67 | 1012.7 |
| 20260905233018 | 31 | 110 | 6.4 | 14.5 | 0.00 | 0.00 | 0.00 | 66 | 1012.7 |
| 20260905232513 | 31 | 113 | 6.4 | 16.1 | 0.00 | 0.00 | 0.00 | 66 | 1012.9 |
| 20260905232010 | 31 | 157 | 6.4 | 19.3 | 0.00 | 0.00 | 0.00 | 65 | 1012.8 |
| 20260905231529 | 31 | 126 | 9.7 | 19.3 | 0.00 | 0.00 | 0.00 | 64 | 1012.7 |
| 20260905231012 | 31 | 139 | 9.7 | 16.1 | 0.00 | 0.00 | 0.00 | 64 | 1012.6 |
| 20260905230521 | 31 | 121 | 9.7 | 16.1 | 0.00 | 0.00 | 0.00 | 64 | 1012.8 |
| 20260905230031 | 32 | 128 | 6.4 | 17.7 | 0.00 | 0.00 | 0.00 | 65 | 1012.7 |
| 20260905225516 | 32 | 128 | 9.7 | 17.7 | 0.00 | 0.00 | 0.00 | 63 | 1012.7 |
| 20260905225016 | 32 | 124 | 9.7 | 19.3 | 0.00 | 0.00 | 0.00 | 63 | 1012.6 |
| 20260905224532 | 32 | 123 | 8.0 | 19.3 | 0.00 | 0.00 | 0.00 | 62 | 1012.6 |
| 20260905224009 | 32 | 186 | 9.7 | 20.9 | 0.00 | 0.00 | 0.00 | 63 | 1012.6 |
| 20260905223508 | 32 | 124 | 9.7 | 20.9 | 0.00 | 0.00 | 0.00 | 60 | 1012.7 |
| 20260905223030 | 32 | 136 | 8.0 | 19.3 | 0.00 | 0.00 | 0.00 | 61 | 1012.8 |
| 20260905222509 | 32 | 142 | 9.7 | 19.3 | 0.00 | 0.00 | 0.00 | 60 | 1012.9 |
| 20260905222013 | 32 | 133 | 6.4 | 20.9 | 0.00 | 0.00 | 0.00 | 61 | 1012.9 |
| 20260905221537 | 32 | 139 | 9.7 | 20.9 | 0.00 | 0.00 | 0.00 | 61 | 1013.0 |
| 20260905221012 | 32 | 142 | 11.3 | 24.1 | 0.00 | 0.00 | 0.00 | 61 | 1013.0 |
| 20260905220514 | 32 | 145 | 11.3 | 24.1 | 0.00 | 0.00 | 0.00 | 61 | 1013.0 |
| 20260905220030 | 32 | 130 | 12.9 | 22.5 | 0.00 | 0.00 | 0.00 | 63 | 1013.0 |
| 20260905215517 | 32 | 156 | 14.5 | 24.1 | 0.00 | 0.00 | 0.00 | 62 | 1013.1 |
| 20260905215015 | 32 | 128 | 14.5 | 25.7 | 0.00 | 0.00 | 0.00 | 63 | 1013.1 |
| 20260905214534 | 32 | 130 | 16.1 | 25.7 | 0.00 | 0.00 | 0.00 | 63 | 1013.2 |
| 20260905214015 | 32 | 104 | 14.5 | 22.5 | 0.00 | 0.00 | 0.00 | 64 | 1013.3 |
| 20260905213519 | 32 | 111 | 14.5 | 25.7 | 0.00 | 0.00 | 0.00 | 65 | 1013.3 |
| 20260905213036 | 32 | 107 | 14.5 | 25.7 | 0.00 | 0.00 | 0.00 | 65 | 1013.5 |
| 20260905212508 | 32 | 85 | 16.1 | 25.7 | 0.00 | 0.00 | 0.00 | 65 | 1013.5 |
| 20260905212012 | 32 | 97 | 14.5 | 25.7 | 0.00 | 0.00 | 0.00 | 66 | 1013.7 |
| 20260905211536 | 31 | 121 | 16.1 | 29.0 | 0.00 | 0.00 | 0.00 | 66 | 1013.7 |
| 20260905211010 | 31 | 109 | 17.7 | 29.0 | 0.00 | 0.00 | 0.00 | 64 | 1013.8 |
| 20260905210513 | 32 | 96 | 12.9 | 27.4 | 0.00 | 0.00 | 0.00 | 65 | 1013.9 |
| 20260905210028 | 31 | 118 | 14.5 | 27.4 | 0.00 | 0.00 | 0.00 | 66 | 1013.9 |
| 20260905205512 | 31 | 85 | 16.1 | 27.4 | 0.00 | 0.00 | 0.00 | 66 | 1014.1 |
| 20260905205014 | 31 | 94 | 16.1 | 29.0 | 0.00 | 0.00 | 0.00 | 67 | 1014.1 |
| 20260905204530 | 31 | 108 | 16.1 | 29.0 | 0.00 | 0.00 | 0.00 | 66 | 1014.2 |
| 20260905204015 | 31 | 73 | 12.9 | 30.6 | 0.00 | 0.00 | 0.00 | 67 | 1014.3 |
| 20260905203519 | 31 | 115 | 19.3 | 30.6 | 0.00 | 0.00 | 0.00 | 66 | 1014.4 |
| 20260905203038 | 31 | 96 | 17.7 | 29.0 | 0.00 | 0.00 | 0.00 | 65 | 1014.5 |
| 20260905202518 | 31 | 89 | 16.1 | 29.0 | 0.00 | 0.00 | 0.00 | 66 | 1014.6 |
| 20260905202018 | 31 | 96 | 14.5 | 30.6 | 0.00 | 0.00 | 0.00 | 66 | 1014.7 |
| 20260905201516 | 31 | 71 | 16.1 | 30.6 | 0.00 | 0.00 | 0.00 | 65 | 1014.7 |
| 20260905201008 | 31 | 93 | 12.9 | 29.0 | 0.00 | 0.00 | 0.00 | 66 | 1014.9 |
| 20260905200509 | 31 | 123 | 12.9 | 29.0 | 0.00 | 0.00 | 0.00 | 65 | 1014.9 |
| 20260905200037 | 31 | 52 | 14.5 | 29.0 | 0.00 | 0.00 | 0.00 | 66 | 1015.0 |